Location: Arrecife
(10.5858°N, 67.0742°W)
Time: 14:49:44
(UTC+00:00)

Cosmos 2278 - Pass Details

Date: 08 December 2021
Orbit: 839 x 853 km, 71.1° (Epoch: 19 January)

Event Time Altitude Azimuth Distance (km) Brightness Sun altitude
Rises 23:13:56 0° 336° (NNW) 3,400 6.9 -16.3°
Reaches altitude 10° 23:16:25 10° 332° (NNW) 2,463 6.2 -16.9°
Maximum altitude 23:21:55 54° 256° (WSW) 1,017 4.5 -18.1°
Drops below altitude 10° 23:27:24 10° 179° (S) 2,455 6.3 -19.4°
Sets 23:29:53 0° 174° (S) 3,388 7.0 -20.0°
